Torna al catalogo

STARLINK-36552

AttivoComunicazioniVLEO
NORAD 67503·PAYLOAD·🇺🇸 United States

Lanciato Jan 18, 2026 da Cape Canaveral Space Force Station

Loading…

Prossimi Passaggi (prossime 24 ore)

TLE

AggiornatoSource: CelesTrak SupGP

Epoca: Sep 14, 2026, 23:19 UTC

1 67503C 26012L   26257.97201389 -.00001495  00000+0 -54130-4 0  2577
2 67503  43.0037 325.2772 0001566 267.6268  29.9224 15.27582086    16

Traccia STARLINK-36552 in tempo reale con AllMySat

Download on the App Store